Airfield :
LOGIN :

Register | Disclaimer

   EN    FR    IT 

 










Legend :    VFR   Marginal VFR   IFR   Intensive IFR   Very Intensive IFR
Visi :
Ceiling :
>= 8 km
>= 3000ft
5 to 8 km
1000 to 3000 ft
1500m to 5 km
500 to 1000 ft
800 to 1500m
200 to 500 ft
< 800m
< 200 ft
Symbols :   Thunderstorms  Fog  Heavy snow  Heavy precipitations  Wind > 20 kt
SIGMETs :     Misc.  Thunderstorms  Icing  Turbulence  Mountain Waves  Volcanic Ashes






- Airport Elevation : 39 ft


ETNH - Hohn AB

CURRENT METAR :
  • 160520Z 26003KT 9999 BKN033 M03/M06 Q1025 BLU

EXPIRED METARs :
  • 160420Z 24004KT 9999 BKN033 M02/M06 Q1026 BLU
  • 160320Z 26003KT 9999 BKN031 M02/M05 Q1026 BLU

TAF TAF ETNH
Valid from the 16 at 00:00 until the 16 at 12:00 UTC


152305Z 1600/1612 34005KT 9999 NSW BKN030
TEMPO 1603/1608 VRB03KT 3000 BR FEW030 BY ETGL



MET'MAP, your aeronautical weather chart ! - Copyright ORBIFLY December 2007 - Disclaimer

ORBIFLY MET'MAP TEAM :

Programming & Development : Alexandra Zaïnal
Concept & original design : Baudouin d'Aumeries
Assistance for programming : Marc-Olivier Méhu
Technical & hardware support : Manuel Goepfert

Contact : metmap@orbifly.com




SOURCES & CREDITS :

   NOAA